(128696) = 2000 RB59 = 2004 RV97

Discovered at Socorro on 2004-09-08 by LINEAR.

Orbit

Orbit type: Main Belt

Note: WebGL enabled browser required.

epoch2024-03-31.0
epoch JD2460400.5
perihelion date2021-03-02.65567
perihelion JD2459276.15567
argument of perihelion (°)50.61153
ascending node (°)230.03738
inclination (°)3.10963
eccentricity0.1080678
perihelion distance (AU)2.3502100
Tisserand w.r.t. Jupiter3.4
ΔV w.r.t. Earth (km/sec)9.6
semimajor axis (AU)2.6349649
mean anomaly (°)259.08420
mean daily motion (°/day)0.23043140
aphelion distance (AU)2.920
period (years)4.28
P-vector [x]0.18391814
P-vector [y]-0.91768740
P-vector [z]-0.35217034
Q-vector [x]0.98206180
Q-vector [y]0.15639955
Q-vector [z]0.10532709
absolute magnitude16.22
phase slope0.15
uncertainty0
referenceMPEC 2024-E179
observations used596
oppositions20
arc length (days)9982
first opposition used1996
last opposition used2024
residual rms (arc-secs)0.71
perturbers coarse indicatorM-v
perturbers precise indicator003Ek
first observation date used1996-11-05.0
last observation date used2024-03-05.0
computer nameMPCLINUX
JD of orbit computation2456639.794087
perihelion JD uncertainty (days)1.1841E-04
argument of perihelion uncertainty (°)9.0000E-05
ascending node uncertainty (°)8.6160E-05
inclination uncertainty (°)5.1112E-06
eccentricity uncertainty 3.8876E-08
perihelion distance uncertainty (AU)1.0362E-07
Minimum Orbit Intersection Distances (in AU)
for orbit epoch: 2460400.5, reference: E2024-G51
Mercury1.89328
Venus1.62498
Earth1.3351
Mars0.87898
Jupiter2.17924
Saturn6.12728
Uranus15.6621
Neptune27.0229

Observations

607 total observations over interval: 1996 11 05.29364 – 2024 03 05.281370
These data are available for download (format description).

Date (UT) J2000 RA J2000 Dec Magn Location Ref
1996 11 05.29364 02 53 57.93 +17 06 36.9 19.7 V 691 – Steward Observatory, Kitt Peak-Spacewatch MPS 115315
1996 11 05.31600 02 53 56.67 +17 06 30.2 19.7 V 691 – Steward Observatory, Kitt Peak-Spacewatch MPS 115315
1996 11 05.33866 02 53 55.28 +17 06 23.3 19.7 V 691 – Steward Observatory, Kitt Peak-Spacewatch MPS 115315
1999 05 18.29219 15 59 44.52 -19 41 59.5 19.4   704 – Lincoln Laboratory ETS, New Mexico MPS 168169
2000 09 07.41718 01 24 28.51 +12 08 49.6 20.6 V 691 – Steward Observatory, Kitt Peak-Spacewatch MPS 18484
2000 09 07.43862 01 24 27.94 +12 08 46.3 20.6 V 691 – Steward Observatory, Kitt Peak-Spacewatch MPS 18484
2000 09 07.46010 01 24 27.35 +12 08 42.8 20.6 V 691 – Steward Observatory, Kitt Peak-Spacewatch MPS 18484
2000 09 08.43114 01 24 02.09 +12 06 09.0 20.9 V 691 – Steward Observatory, Kitt Peak-Spacewatch MPS 18484
2000 09 08.44940 01 24 01.55 +12 06 06.2 20.6 V 691 – Steward Observatory, Kitt Peak-Spacewatch MPS 18484
2000 09 08.46758 01 24 01.06 +12 06 03.2 20.5 V 691 – Steward Observatory, Kitt Peak-Spacewatch MPS 18484
2000 11 17.07797 00 38 28.28 +06 09 26.6 20.7 V 691 – Steward Observatory, Kitt Peak-Spacewatch MPS 115189
2000 11 17.09911 00 38 27.99 +06 09 23.0 21.1 V 691 – Steward Observatory, Kitt Peak-Spacewatch MPS 115189
2000 11 17.12039 00 38 27.73 +06 09 19.3 21.1 V 691 – Steward Observatory, Kitt Peak-Spacewatch MPS 115189
2003 04 05.36345 13 33 02.12 -12 20 12.8 19.8 V 691 – Steward Observatory, Kitt Peak-Spacewatch MPS 115315
2003 04 05.39093 13 33 00.75 -12 20 04.0 19.8 V 691 – Steward Observatory, Kitt Peak-Spacewatch MPS 115315
2003 04 05.41784 13 32 59.39 -12 19 54.9 19.8 V 691 – Steward Observatory, Kitt Peak-Spacewatch MPS 115315
2003 04 29.26125 13 13 22.48 -09 53 46.9 19.9 V 691 – Steward Observatory, Kitt Peak-Spacewatch MPS 115315
2003 04 29.27778 13 13 21.67 -09 53 43.3 19.2 R 699 – Lowell Observatory-LONEOS MPS 115315
2003 04 29.29012 13 13 21.14 -09 53 36.6 20.0 V 691 – Steward Observatory, Kitt Peak-Spacewatch MPS 115315
2003 04 29.29526 13 13 20.91 -09 53 36.9   699 – Lowell Observatory-LONEOS MPS 115315
2003 04 29.31271 13 13 20.07 -09 53 30.9   699 – Lowell Observatory-LONEOS MPS 115315
2003 04 29.31892 13 13 19.80 -09 53 25.6 19.9 V 691 – Steward Observatory, Kitt Peak-Spacewatch MPS 115315
2003 04 29.33013 13 13 19.26 -09 53 25.1   699 – Lowell Observatory-LONEOS MPS 115315
2003 05 06.17106 13 08 40.15 -09 13 58.5 20.2 V 691 – Steward Observatory, Kitt Peak-Spacewatch MPS 115315
2003 05 06.19743 13 08 39.11 -09 13 50.0 20.2 V 691 – Steward Observatory, Kitt Peak-Spacewatch MPS 115315
2003 05 06.22557 13 08 38.05 -09 13 40.7 20.0 V 691 – Steward Observatory, Kitt Peak-Spacewatch MPS 115315
2003 06 16.18613 13 04 01.08 -07 37 51.8 20.2   644 – Palomar Mountain/NEAT MPS 115315
2003 06 16.20725 13 04 01.58 -07 37 53.3 20.1   644 – Palomar Mountain/NEAT MPS 115315
2003 06 16.22843 13 04 02.05 -07 37 54.8 19.9   644 – Palomar Mountain/NEAT MPS 115315
2004 08 11.34054 23 15 09.78 +00 21 34.1 20.7   704 – Lincoln Laboratory ETS, New Mexico MPS 113111
2004 08 11.35045 23 15 09.48 +00 21 32.0 20.7   704 – Lincoln Laboratory ETS, New Mexico MPS 113111
2004 08 11.37024 23 15 08.76 +00 21 28.5 20.4   704 – Lincoln Laboratory ETS, New Mexico MPS 113111
2004 09 08.23255 22 54 26.24 -01 49 26.5 19.3   704 – Lincoln Laboratory ETS, New Mexico MPS 113111
2004 09 08.24451 22 54 25.65 -01 49 30.9 19.6   704 – Lincoln Laboratory ETS, New Mexico MPS 113111
2004 09 08.25643 22 54 25.02 -01 49 36.3 19.6   704 – Lincoln Laboratory ETS, New Mexico MPS 113111
2004 09 08.26831 22 54 24.44 -01 49 39.4 19.8   704 – Lincoln Laboratory ETS, New Mexico MPS 113111
2004 09 08.28087 22 54 23.78 -01 49 44.7 19.4   704 – Lincoln Laboratory ETS, New Mexico MPS 113111
2004 09 09.27988 22 53 34.72 -01 55 42.7 19.0 R 699 – Lowell Observatory-LONEOS MPS 113111
2004 09 09.28961 22 53 34.24 -01 55 46.2   699 – Lowell Observatory-LONEOS MPS 113111
2004 09 09.29932 22 53 33.73 -01 55 49.2   699 – Lowell Observatory-LONEOS MPS 113111
2004 09 09.30903 22 53 33.25 -01 55 51.4   699 – Lowell Observatory-LONEOS MPS 113111
2004 09 10.23398 22 52 48.13 -02 01 24.7 19.1   704 – Lincoln Laboratory ETS, New Mexico MPS 113111
2004 09 10.24580 22 52 47.53 -02 01 28.8 19.9   704 – Lincoln Laboratory ETS, New Mexico MPS 113111
2004 09 10.25757 22 52 46.94 -02 01 33.3 20.0   704 – Lincoln Laboratory ETS, New Mexico MPS 113111
2004 09 10.26958 22 52 46.32 -02 01 37.7 19.8   704 – Lincoln Laboratory ETS, New Mexico MPS 113111
2004 09 10.28186 22 52 45.69 -02 01 42.0 19.7   704 – Lincoln Laboratory ETS, New Mexico MPS 113111
2004 09 13.22848 22 50 24.27 -02 19 23.2 19.5 V 691 – Steward Observatory, Kitt Peak-Spacewatch MPS 113111
2004 09 13.25568 22 50 22.92 -02 19 33.2 19.4 V 691 – Steward Observatory, Kitt Peak-Spacewatch MPS 113111
2004 09 13.28345 22 50 21.57 -02 19 43.1 19.5 V 691 – Steward Observatory, Kitt Peak-Spacewatch MPS 113111
2004 09 14.22351 22 49 37.46 -02 25 21.0 19.0   704 – Lincoln Laboratory ETS, New Mexico MPS 113111
2004 09 14.23536 22 49 36.95 -02 25 23.5 20.3   704 – Lincoln Laboratory ETS, New Mexico MPS 113111
2004 09 14.24338 22 49 36.55 -02 25 27.7 19.4   704 – Lincoln Laboratory ETS, New Mexico MPS 113111
2004 09 14.24775 22 49 36.36 -02 25 29.6 20.4   704 – Lincoln Laboratory ETS, New Mexico MPS 113111
2004 09 14.25468 22 49 35.96 -02 25 33.0 19.5   704 – Lincoln Laboratory ETS, New Mexico MPS 113111
2004 09 14.25992 22 49 35.74 -02 25 33.1 19.7   704 – Lincoln Laboratory ETS, New Mexico MPS 113111
2004 09 14.28853 22 49 34.39 -02 25 43.8 19.3   704 – Lincoln Laboratory ETS, New Mexico MPS 113111
2004 09 15.19328 22 48 52.72 -02 31 09.4 19.3 R 699 – Lowell Observatory-LONEOS MPS 113111
2004 09 15.20788 22 48 51.88 -02 31 14.1   699 – Lowell Observatory-LONEOS MPS 113111
2004 09 15.22246 22 48 51.25 -02 31 19.2   699 – Lowell Observatory-LONEOS MPS 113111
2004 09 15.23705 22 48 50.52 -02 31 24.7   699 – Lowell Observatory-LONEOS MPS 113111
2004 09 18.25937 22 46 34.75 -02 49 17.0 19.9   704 – Lincoln Laboratory ETS, New Mexico MPS 114468
2004 09 18.27157 22 46 34.22 -02 49 21.4 19.9   704 – Lincoln Laboratory ETS, New Mexico MPS 114468
2004 09 18.28371 22 46 33.62 -02 49 24.6 20.1   704 – Lincoln Laboratory ETS, New Mexico MPS 114468
2004 09 18.29591 22 46 33.08 -02 49 29.1 19.6   704 – Lincoln Laboratory ETS, New Mexico MPS 114468
2004 09 23.38085 22 43 03.56 -03 18 30.9 19.7 V 691 – Steward Observatory, Kitt Peak-Spacewatch MPS 114468
2004 09 23.40703 22 43 02.51 -03 18 39.6 19.8 V 691 – Steward Observatory, Kitt Peak-Spacewatch MPS 114468
2004 09 23.43331 22 43 01.32 -03 18 48.4 19.9 V 691 – Steward Observatory, Kitt Peak-Spacewatch MPS 114468
2005 11 26.29373 05 57 31.75 +21 07 12.2   691 – Steward Observatory, Kitt Peak-Spacewatch MPS 152083
2005 11 26.31112 05 57 30.92 +21 07 11.0   691 – Steward Observatory, Kitt Peak-Spacewatch MPS 152083
2005 11 26.32849 05 57 30.05 +21 07 10.1   691 – Steward Observatory, Kitt Peak-Spacewatch MPS 152083
2005 12 08.23211 05 46 49.72 +20 52 13.5 20.4 V 691 – Steward Observatory, Kitt Peak-Spacewatch MPS 153695
2005 12 08.25745 05 46 48.22 +20 52 11.8 20.2 V 691 – Steward Observatory, Kitt Peak-Spacewatch MPS 153695
2005 12 08.28267 05 46 46.69 +20 52 09.7 20.3 V 691 – Steward Observatory, Kitt Peak-Spacewatch MPS 153695
2007 02 19.36920 11 46 10.92 -03 01 04.9 19.9 V G96 – Mt. Lemmon Survey MPS 201329
2007 02 19.37532 11 46 10.63 -03 01 03.5 19.2 V G96 – Mt. Lemmon Survey MPS 201329
2007 02 19.38154 11 46 10.45 -03 01 02.2 20.4 V G96 – Mt. Lemmon Survey MPS 201329
2007 02 19.38777 11 46 10.20 -03 01 01.1 20.3 V G96 – Mt. Lemmon Survey MPS 201329
2007 02 20.70977 11 45 21.43 -02 56 19.9 20.7 R D35 – Lulin Observatory MPS 201329
2007 02 20.72153 11 45 20.97 -02 56 17.3 21.2 R D35 – Lulin Observatory MPS 201329
2007 02 20.73333 11 45 20.53 -02 56 15.2 20.6 R D35 – Lulin Observatory MPS 201329
2007 03 11.27943 11 31 12.54 -01 25 29.8 19.8 V 703 – Catalina Sky Survey MPS 204359
2007 03 11.28480 11 31 12.18 -01 25 28.1 20.2 V 703 – Catalina Sky Survey MPS 204359
2007 03 11.29016 11 31 11.92 -01 25 26.2 19.7 V 703 – Catalina Sky Survey MPS 204359
